Vorticity
nan nan nan nan nan nan nan nan nan nan nan nan nan nan nan nan nan nan nan nan nan nan nan nan nan nan nan nan nan nan nan nan
nan 8 8 8 9 9 8 7 7 6 7 7 8 7 5 7 10 10 7 7 7 5 5 7 7 8 8 6 7 8 7 nan
nan 10 8 9 8 7 8 7 6 4 5 6 9 11 10 9 9 10 9 8 7 6 6 6 6 7 8 7 5 7 11 nan
nan 11 8 7 8 8 8 8 6 6 4 1 4 7 9 11 10 10 11 8 7 7 6 6 7 7 7 8 7 5 7 nan
nan 10 9 7 8 8 8 8 7 8 7 7 6 1 3 7 8 8 11 10 7 7 7 6 5 7 8 8 8 6 6 nan
nan 11 10 8 8 9 10 9 7 9 7 4 6 3 4 9 12 12 9 10 10 8 8 7 5 7 9 8 7 5 4 nan
nan 13 10 9 9 9 11 10 8 7 8 8 6 4 4 5 8 8 9 9 12 11 9 7 7 7 8 8 9 8 3 nan
nan 10 12 10 10 9 10 10 10 9 7 6 7 8 7 5 5 7 8 7 9 14 9 6 7 9 8 9 9 9 8 nan
nan 7 10 11 10 10 10 9 9 10 8 7 7 5 4 9 7 7 8 9 9 10 10 9 9 9 8 8 7 9 10 nan
nan 10 10 10 11 11 10 10 10 10 8 7 8 7 6 7 8 5 6 8 11 12 11 9 9 9 9 7 7 9 9 nan
nan 13 13 13 12 12 12 12 11 10 8 6 10 10 7 6 8 9 7 8 10 11 10 10 8 8 9 7 6 10 8 nan
nan 14 13 13 11 14 13 13 12 10 10 9 8 10 10 8 8 9 9 8 9 10 10 10 9 8 8 8 8 9 8 nan
nan 13 15 16 13 13 14 13 12 11 11 11 10 9 10 9 8 7 10 8 9 10 9 10 10 10 10 10 8 9 10 nan
nan 11 11 10 13 15 15 14 13 12 13 11 10 10 10 10 8 8 8 10 9 10 11 10 9 10 9 10 10 11 11 nan
nan 8 11 13 13 12 14 15 15 15 12 11 10 10 9 10 10 9 8 10 10 11 11 10 10 9 10 10 11 11 11 nan
nan 8 9 12 13 16 15 13 14 16 14 11 11 10 10 9 11 11 10 11 11 11 11 10 11 8 11 12 11 11 10 nan
nan 5 6 9 11 10 15 16 13 14 15 14 12 12 14 12 11 11 10 10 12 12 10 10 5 9 15 12 11 10 10 nan
nan 8 8 5 8 10 14 19 19 16 16 16 16 15 13 13 12 12 11 10 9 9 10 10 9 12 15 11 6 7 10 nan
nan nan nan nan nan nan nan nan nan nan nan nan nan nan nan nan nan nan nan nan nan nan nan nan nan nan nan nan nan nan nan nan
CAPE
841 617 557 381 222 231 268 338 259 164 229 136 110 62 57 19 13 10 0 16 40 12 16 6 0 0 0 0 0 0 0 10
885 865 600 455 235 131 248 350 354 210 139 112 90 125 86 41 32 21 1 8 53 58 41 25 1 0 0 0 0 1 10 29
624 892 663 571 414 246 179 231 266 265 204 187 158 145 76 92 29 21 27 21 32 94 123 71 47 27 0 0 0 6 16 45
683 727 781 645 622 411 330 258 230 239 156 107 4 15 0 11 68 58 81 93 79 65 121 161 68 91 48 2 0 30 65 23
57 836 731 687 717 720 538 400 312 247 147 66 59 59 48 87 90 130 136 172 200 171 129 168 133 92 87 24 1 34 60 117
0 54 896 750 719 951 783 614 468 315 190 144 56 56 41 37 71 95 170 243 275 263 280 277 243 130 133 33 5 24 14 77
0 0 140 747 930 834 1071 790 705 501 286 307 209 158 159 184 215 326 284 321 369 370 372 387 355 208 167 55 39 27 55 32
0 0 0 8 452 944 1008 1079 859 772 589 425 560 442 432 442 431 487 507 516 583 621 523 498 472 371 206 108 44 89 81 85
0 0 0 0 0 197 1075 1241 1109 1006 933 760 714 796 756 774 640 711 665 650 707 747 683 641 599 479 319 89 86 97 81 96
0 0 0 0 0 0 164 1302 1397 1220 1173 1058 995 887 993 1001 934 795 783 736 731 717 744 730 604 524 352 147 217 75 44 96
0 0 0 0 0 0 10 701 1376 1410 1437 1308 1230 1145 1024 1094 1026 789 738 733 652 658 744 672 634 535 324 175 258 112 29 60
0 0 0 0 0 0 4 324 933 1341 1513 1543 1449 1350 1170 1079 946 883 757 621 511 447 662 600 677 427 268 225 375 165 30 16
0 0 0 0 0 0 0 160 643 1011 1282 1562 1667 1546 1377 1051 914 851 700 570 374 386 442 397 490 328 202 196 212 58 39 0
0 0 0 0 0 0 0 0 300 697 1011 1137 1449 1475 1305 1179 1053 918 648 562 338 251 289 357 352 218 121 98 104 3 0 0
0 0 0 0 0 0 0 0 9 329 543 787 975 1152 1174 1133 1139 1024 710 417 322 171 224 270 251 142 90 71 30 0 0 0
0 0 0 0 0 0 0 0 0 86 309 507 645 839 1007 1074 1022 913 674 275 228 119 140 126 102 102 71 22 0 0 0 0
0 0 0 0 0 0 0 0 0 0 106 310 535 666 781 865 859 745 451 131 95 38 57 88 95 73 3 0 0 0 0 0
0 0 0 0 0 0 0 1 0 0 0 167 389 546 656 725 750 627 231 97 47 26 40 62 87 15 2 1 0 0 0 0
0 0 0 0 0 0 0 0 0 0 0 33 367 509 617 743 499 424 275 77 64 58 49 58 20 0 1 1 1 0 0 0